Helicity
155 136 92 52 12 -19 -16 -16 -37 -13 -10 -14 5 14 22 17 45 40 35 54 44 42 43 40 36 34 32 33 38 39 40 42 43 42 41 41 42 48 52 48 43 30 31
158 140 84 41 9 -17 -22 1 2 3 -7 4 3 11 8 31 40 71 63 50 65 51 43 40 41 41 37 38 40 40 38 36 37 44 49 52 50 50 55 52 51 47 48
159 131 87 39 14 43 26 27 18 19 8 8 12 12 15 28 35 48 84 62 64 59 48 35 36 40 35 33 38 43 33 21 33 48 61 54 64 62 52 52 52 47 43
148 113 49 13 49 64 41 41 36 21 18 13 1 17 32 41 44 44 60 90 79 59 53 48 32 38 33 31 26 32 40 40 42 47 56 54 55 54 43 37 39 42 39
128 57 50 123 87 85 68 49 36 24 21 21 18 33 35 43 50 57 64 55 80 97 83 75 63 50 36 28 24 27 24 25 46 53 55 58 56 48 49 42 38 45 46
175 195 179 131 106 89 65 49 38 29 23 23 31 34 41 52 61 62 53 46 84 101 81 97 89 72 65 50 48 80 65 84 110 110 86 52 50 41 45 44 61 54 63
200 193 166 129 110 89 64 50 52 44 57 58 63 47 51 44 75 59 87 95 130 130 140 100 116 116 122 114 127 153 160 143 169 155 143 110 81 21 39 51 52 58 61
196 178 158 135 112 81 63 63 68 61 51 52 64 79 86 93 96 102 92 84 79 99 107 84 79 122 121 105 115 139 165 165 196 197 227 96 50 33 22 27 29 48 63
182 176 158 133 101 102 100 75 83 78 70 116 108 96 100 72 55 62 86 65 72 80 81 82 102 120 104 136 102 108 98 110 126 107 80 78 74 56 23 32 43 28 36
170 175 152 140 138 144 115 122 112 95 109 107 114 104 121 76 38 48 73 45 74 76 70 76 72 64 66 67 70 87 92 74 59 65 42 45 63 43 20 11 27 39 40
158 193 193 202 205 200 166 151 173 169 144 100 81 53 85 81 63 77 57 51 62 61 58 60 59 55 58 53 59 64 59 46 40 40 47 48 44 56 79 62 65 50 50
260 254 252 232 207 201 190 167 141 107 109 107 56 48 43 37 54 76 63 -10 19 44 59 60 60 65 78 83 99 93 77 57 41 42 44 66 52 69 127 73 69 57 56
275 240 228 218 206 186 163 141 146 107 64 86 9 63 38 12 11 105 92 51 45 61 57 45 52 71 96 93 89 89 89 89 80 58 60 81 88 205 121 123 105 43 22
279 276 268 240 206 173 177 144 130 143 67 27 5 9 28 86 139 137 107 81 42 46 50 23 75 77 77 76 96 116 108 111 107 133 89 151 226 194 175 121 98 60 37
217 222 240 232 210 197 194 177 163 96 52 30 -2 58 131 146 132 110 116 93 70 42 38 77 67 78 67 66 58 80 88 111 123 154 230 270 224 197 152 102 84 92 61
209 229 245 254 255 236 189 132 81 112 2 73 126 130 125 123 120 106 97 92 105 109 94 107 107 82 66 65 85 92 108 137 135 154 166 170 150 125 99 78 90 63 69
204 220 227 252 232 196 138 119 180 120 30 101 151 112 109 110 94 96 99 99 100 113 101 74 77 86 67 65 63 75 94 113 129 153 158 149 154 144 128 121 89 63 71
192 289 291 232 225 194 233 232 243 188 153 136 116 121 119 127 125 119 118 127 127 138 123 80 91 96 93 94 95 102 98 108 134 156 143 132 123 154 144 112 113 98 85
178 235 328 237 260 183 191 255 147 150 141 125 121 131 141 134 133 133 121 117 125 122 113 96 86 99 97 109 121 135 152 153 147 157 160 135 137 132 131 133 124 133 137
23 7 21 198 152 76 70 138 182 163 187 205 204 187 187 169 166 145 125 118 133 127 100 85 102 115 100 104 115 118 127 165 153 168 206 174 136 157 123 110 107 103 133
78 84 92 120 153 183 214 209 193 206 225 223 208 198 197 185 186 171 147 154 125 103 95 103 105 123 100 85 69 108 129 155 164 156 169 191 178 132 110 132 117 117 80
142 163 186 202 218 187 176 200 229 222 196 190 189 195 184 163 137 126 131 148 134 123 124 126 115 103 70 39 45 71 119 153 173 167 177 171 140 141 124 102 115 104 57
194 197 177 181 196 196 189 193 213 233 231 212 199 187 169 144 120 103 95 106 117 135 139 144 116 105 95 93 55 65 99 140 162 171 178 184 168 139 121 121 95 82 63
173 194 195 194 208 209 214 215 220 228 228 207 182 151 143 122 111 131 135 140 131 112 122 135 117 107 94 76 66 69 109 130 155 153 154 169 145 128 129 115 81 58 68
160 172 167 168 188 196 201 216 244 244 228 206 176 158 135 112 87 104 116 124 126 124 133 130 118 108 103 103 78 108 113 148 150 135 135 163 122 130 125 101 86 56 58
135 147 157 163 163 189 187 199 234 243 223 198 170 140 116 104 84 75 80 86 111 145 148 136 127 120 127 131 129 118 116 135 158 142 110 149 142 134 111 94 100 90 64
Wind_Speed
24 20 17 14 13 9 7 7 5 8 12 15 18 20 23 23 25 25 26 26 27 28 30 31 32 34 36 36 37 37 37 38 38 39 40 40 41 43 45 46 49 51 53
27 22 20 17 14 9 7 2 5 6 12 14 17 20 21 25 25 25 23 23 23 24 26 27 28 29 30 31 32 33 33 34 35 36 35 36 36 37 38 40 42 45 46
28 24 22 19 16 9 6 6 6 8 11 18 17 19 21 21 23 25 22 22 22 23 23 23 23 24 25 26 27 29 31 31 31 32 32 32 32 33 33 33 37 41 44
26 26 26 20 15 11 7 6 5 7 10 16 20 21 24 26 27 25 25 26 22 23 20 19 19 21 21 21 23 25 24 27 28 30 29 29 29 30 32 33 35 38 40
26 27 26 20 16 12 9 6 6 8 12 15 22 25 26 30 31 33 30 29 25 26 22 18 17 19 19 19 19 20 21 28 28 28 27 27 27 27 28 29 32 31 33
31 27 25 21 17 14 10 6 4 10 12 15 21 25 29 29 30 31 32 30 28 25 26 25 17 17 14 13 19 25 28 33 43 44 41 35 31 31 31 27 23 23 24
35 32 27 23 20 16 11 6 9 13 19 22 26 29 29 26 27 30 33 35 36 34 32 32 32 23 24 23 25 29 35 39 45 47 51 53 53 40 27 20 18 17 19
37 34 30 27 22 17 13 10 9 13 18 19 27 30 30 31 32 32 35 34 32 28 26 26 27 26 23 24 26 30 33 38 43 48 53 47 45 44 41 35 23 17 19
39 36 31 29 24 19 15 13 12 14 17 27 26 30 32 33 33 31 31 25 25 25 22 25 27 27 25 26 26 30 32 35 38 38 37 41 42 41 41 41 41 31 26
41 37 33 29 27 22 18 17 18 18 23 25 30 32 29 32 36 34 32 14 25 24 27 27 29 28 28 30 32 36 40 40 40 39 38 40 39 40 42 43 41 41 36
42 40 35 30 29 24 20 19 19 21 23 25 28 27 33 37 37 38 46 14 34 21 19 24 26 24 25 27 30 32 33 33 34 33 32 35 40 40 41 40 41 41 41
42 40 36 34 31 27 24 21 20 20 23 25 31 29 33 41 38 26 14 10 9 28 30 24 20 17 18 22 27 34 34 32 36 31 26 25 31 35 32 38 43 48 43
46 43 40 37 31 27 26 23 22 23 23 33 27 35 46 50 52 23 33 44 37 38 31 25 25 26 29 34 38 36 36 32 37 33 24 24 27 31 38 45 49 51 56
47 43 43 37 31 30 25 22 25 29 33 30 37 48 50 41 33 34 34 38 44 40 34 25 31 32 38 38 38 39 37 38 40 46 21 22 29 31 38 43 49 52 58
45 42 41 37 34 31 28 23 36 42 45 42 57 48 33 35 34 38 33 33 34 35 39 35 32 40 42 44 44 44 38 35 35 36 35 32 32 38 42 44 47 52 60
39 37 38 37 34 32 32 31 35 44 33 37 29 34 38 36 34 31 32 32 36 32 32 34 40 43 49 48 47 44 40 38 36 35 33 35 37 39 41 42 48 50 56
33 38 39 35 36 35 33 34 35 34 36 16 32 40 37 33 32 32 33 36 38 37 36 32 45 49 54 54 52 48 44 42 39 36 35 37 39 40 42 43 46 49 47
40 46 42 39 35 36 34 36 49 47 27 23 31 28 32 32 34 34 36 38 38 38 36 33 44 50 48 50 50 46 45 42 40 36 33 31 33 34 35 40 42 44 40
43 42 46 58 57 54 44 36 29 29 20 29 30 29 30 32 32 34 37 39 36 35 39 42 49 48 50 49 48 45 42 38 36 35 34 29 27 29 30 34 37 38 40
30 35 25 36 43 35 35 16 17 16 18 22 25 28 32 34 33 37 39 37 36 39 42 46 48 49 51 51 52 53 52 43 40 36 33 29 27 30 29 32 33 35 36
6 1 4 8 17 16 12 12 12 12 15 20 27 32 36 38 39 40 39 40 40 41 45 47 50 52 56 56 56 50 52 49 43 37 33 29 29 28 29 31 33 33 31
1 6 16 17 13 9 9 10 16 20 22 26 30 34 36 38 41 40 39 41 42 44 44 47 51 52 55 56 52 52 51 51 50 35 33 28 28 28 27 31 32 31 28
14 23 28 20 19 20 21 19 18 20 23 27 30 31 34 37 39 40 40 41 43 42 45 46 49 48 50 50 54 55 53 51 46 43 33 36 28 28 27 32 29 31 24
12 25 28 25 22 23 20 20 21 24 28 30 33 35 38 40 40 42 44 45 45 45 44 43 43 47 48 51 48 47 49 48 45 40 33 38 34 32 29 30 26 24 24
19 25 28 25 24 24 23 24 26 29 32 35 37 38 38 39 41 42 46 49 49 47 39 40 42 46 51 52 48 42 43 43 44 41 30 35 36 34 29 30 29 21 22
24 24 27 29 26 27 26 28 31 31 34 35 36 37 37 39 36 39 42 45 48 47 40 44 45 45 46 49 49 46 43 41 40 45 32 29 32 30 35 32 30 28 16
Wind_Direction
191 188 182 176 170 162 137 117 46 5 338 354 3 9 7 20 29 41 45 43 35 32 29 28 28 28 29 31 33 33 33 32 29 25 23 25 25 22 23 27 27 25 22
193 195 188 191 174 185 149 171 320 17 340 355 5 5 6 3 14 25 35 35 32 26 23 24 26 29 30 31 36 33 32 31 29 27 28 26 26 27 30 29 31 30 29
190 192 193 193 212 208 199 263 300 326 346 333 356 5 12 21 15 8 20 23 23 19 17 20 23 23 21 24 28 28 24 25 29 31 30 28 26 25 26 30 31 26 25
194 190 189 196 207 210 212 254 296 335 351 339 339 355 358 356 359 5 6 9 17 17 23 22 23 18 18 18 18 20 28 27 28 20 22 20 19 17 16 13 14 16 21
201 191 198 196 194 205 229 250 293 320 336 344 336 343 348 346 348 345 357 3 10 10 17 20 21 20 24 29 28 34 29 18 18 13 10 11 11 11 10 6 2 9 16
208 206 202 197 202 211 220 244 285 312 329 342 341 342 341 347 353 352 354 357 4 9 10 12 25 27 41 43 28 17 13 6 359 358 357 357 354 352 352 354 2 6 11
207 210 207 201 203 206 218 233 286 299 312 325 332 336 342 351 354 353 354 352 357 3 11 11 14 24 23 22 14 5 356 351 349 347 345 343 343 348 349 346 350 353 357
207 209 208 207 211 215 226 249 279 304 314 327 331 332 339 339 340 347 354 359 8 16 22 21 17 17 19 12 6 360 354 346 343 340 339 343 348 349 353 350 338 332 335
207 213 207 211 216 225 233 254 276 299 313 318 323 329 327 333 339 345 358 21 31 25 27 15 6 2 3 5 4 356 353 349 346 347 350 349 349 349 350 349 346 339 328
209 214 211 211 227 236 244 262 282 297 306 312 316 319 332 331 331 334 344 69 24 21 20 19 14 15 9 6 4 360 356 357 357 354 350 348 347 347 347 349 350 345 342
214 218 216 222 229 238 248 262 281 295 305 312 317 320 319 319 317 316 318 34 359 23 41 26 23 27 24 20 13 9 6 5 2 359 356 352 346 345 344 346 349 348 346
216 220 220 226 235 241 249 261 276 289 299 308 313 314 315 305 313 342 13 232 72 15 13 26 27 34 31 20 10 357 356 358 357 357 356 356 354 351 352 348 347 341 344
222 223 225 228 234 240 249 260 272 286 304 311 312 301 280 277 278 344 332 317 339 348 4 15 20 17 7 356 352 354 354 355 353 351 350 356 354 1 354 346 342 339 334
226 226 227 229 235 240 246 253 271 293 301 305 300 267 272 297 320 321 326 325 329 339 353 11 12 6 356 357 358 357 356 355 355 354 360 359 5 1 352 346 343 337 333
226 224 228 232 236 240 242 259 276 285 294 281 264 278 298 303 312 313 330 336 339 342 345 360 2 351 349 347 350 350 353 355 356 358 2 3 359 351 347 343 344 340 332
226 222 228 235 234 240 253 265 277 287 296 288 293 288 291 302 314 323 329 334 330 334 337 349 347 342 338 341 346 349 350 351 350 349 348 346 345 343 344 343 344 344 338
228 227 229 233 234 243 259 270 278 290 275 289 287 284 293 304 310 320 324 327 327 332 330 336 334 333 333 335 337 343 345 345 345 345 344 341 339 339 341 341 343 343 347
244 239 239 238 240 253 264 279 274 260 273 279 284 292 296 303 309 316 319 322 327 331 332 333 331 330 333 335 337 339 341 343 342 343 343 344 342 341 343 342 344 347 349
247 245 248 250 255 260 271 272 258 252 254 273 282 290 295 302 310 313 315 317 326 327 327 327 326 329 330 332 333 335 335 338 339 339 338 341 342 343 343 341 341 347 345
262 262 261 256 252 257 242 222 239 236 257 274 285 293 297 301 307 308 312 320 323 325 326 326 326 326 328 331 331 329 328 332 332 335 339 339 339 338 340 339 339 343 343
113 133 145 209 237 238 217 189 199 228 258 278 289 293 298 303 307 307 311 317 319 323 324 325 324 324 325 327 328 331 328 330 330 327 331 333 332 335 337 337 336 340 341
355 279 266 250 242 227 192 213 249 258 268 278 285 294 301 304 305 309 315 318 320 321 320 321 322 323 325 327 330 329 328 326 327 332 329 324 329 329 331 328 330 335 340
277 264 251 248 257 264 263 261 259 265 272 280 288 295 300 304 307 309 313 317 318 320 320 322 320 322 326 329 330 329 327 326 325 327 329 324 321 319 323 321 326 326 342
277 262 260 263 268 273 271 269 270 275 281 287 291 297 301 303 306 310 312 314 316 318 321 322 322 323 326 326 328 331 330 328 326 326 327 322 323 320 322 317 322 326 329
281 274 270 272 275 276 272 271 274 279 284 289 294 297 301 305 308 311 311 311 313 315 321 324 323 325 326 329 331 333 331 330 328 328 326 324 324 324 325 318 317 328 323
293 289 286 286 284 277 275 275 280 281 284 288 295 298 303 306 310 315 315 314 311 314 318 320 322 325 328 329 333 334 333 330 330 330 333 324 324 325 325 322 318 322 331